Change the Weather History Date:

Saturday, April 27, 2013

  Actual Average Record
Temperature  
Mean Temperature 63 °F 66 °F  
Max Temperature 68 °F 79 °F 94 °F (1986)
Min Temperature 57 °F 53 °F 35 °F (1972)
Degree Days  
Heating Degree Days 2 2  
Month to date heating degree days 82 116  
Since 1 July heating degree days 2241 2525  
Cooling Degree Days 0 4  
Month to date cooling degree days 80 61  
Year to date cooling degree days 118 83  
Growing Degree Days 12 (Base 50)    
Moisture  
Dew Point 51 °F    
Average Humidity 71    
Maximum Humidity 86    
Minimum Humidity 55    
Precipitation  
Precipitation 0.03 in 0.08 in 1.46 in (1982)
Month to date precipitation 2.56 2.35  
Year to date precipitation 12.93 13.27  
Sea Level Pressure  
Sea Level Pressure 30.31 in    
Wind  
Wind Speed 3 mph (NE)    
Max Wind Speed 10 mph    
Max Gust Speed 14 mph    
Visibility 10 miles    
Events Rain    
T = Trace of Precipitation, MM = Missing Value Source: NWS Daily Summary

Daily Weather History Graph

Daily Weather History Graph

Search for Another Location

Airport or City:

Trip Planner

Search our weather history database for the weather conditions in past years. The results will help you decide how hot, cold, wet, or windy it might be!

Date:

Astronomy

Apr. 27, 2013 Rise Set
Actual Time 6:39 AM EDT 8:05 PM EDT
Civil Twilight 6:12 AM EDT 8:31 PM EDT
Nautical Twilight 5:41 AM EDT 9:03 PM EDT
Astronomical Twilight 5:08 AM EDT 9:36 PM EDT
Moon 10:28 PM EDT (4/27) 8:00 AM EDT (4/27)
Length of Visible Light 14h 18m
Length of Day
13h 25m
Waning Gibbous, 95% of the Moon is Illuminated
Apr 27
Waning Gibbous
May 2
Last Quarter
May 9
New
May 18
First Quarter
May 25
Full

Hourly Weather History & Observations

Time (EDT) Temp. Dew Point Humidity Pressure Visibility Wind Dir Wind Speed Gust Speed Precip Events Conditions
12:56 AM 63.0 °F 46.0 °F 54% 30.35 in 10.0 mi Calm Calm - N/A   Mostly Cloudy
1:56 AM 62.1 °F 46.0 °F 56% 30.33 in 10.0 mi Calm Calm - N/A   Mostly Cloudy
2:56 AM 61.0 °F 45.0 °F 56% 30.32 in 10.0 mi Calm Calm - N/A   Overcast
3:56 AM 60.1 °F 48.0 °F 64% 30.32 in 10.0 mi Calm Calm - N/A   Overcast
4:56 AM 57.9 °F 51.1 °F 78% 30.32 in 10.0 mi Calm Calm - N/A   Mostly Cloudy
5:56 AM 60.1 °F 48.9 °F 67% 30.32 in 10.0 mi Calm Calm - N/A   Overcast
6:56 AM 60.1 °F 50.0 °F 69% 30.34 in 10.0 mi Calm Calm - 0.00 in Rain Light Rain
7:56 AM 59.0 °F 51.1 °F 75% 30.36 in 9.0 mi Calm Calm - 0.00 in Rain Light Rain
8:56 AM 59.0 °F 50.0 °F 72% 30.36 in 9.0 mi NNW 3.5 mph - 0.01 in Rain Light Rain
9:56 AM 59.0 °F 52.0 °F 78% 30.34 in 10.0 mi NNE 3.5 mph - 0.02 in   Overcast
10:56 AM 63.0 °F 54.0 °F 72% 30.35 in 10.0 mi Variable 4.6 mph - N/A   Overcast
11:56 AM 64.0 °F 51.1 °F 63% 30.34 in 10.0 mi Calm Calm - N/A   Overcast
12:56 PM 66.9 °F 51.1 °F 57% 30.33 in 10.0 mi Calm Calm - N/A   Overcast
1:56 PM 66.9 °F 52.0 °F 59% 30.32 in 10.0 mi NNW 3.5 mph - N/A   Overcast
2:56 PM 66.9 °F 51.1 °F 57% 30.32 in 10.0 mi NNE 5.8 mph - N/A   Overcast
3:56 PM 64.9 °F 53.1 °F 65% 30.30 in 10.0 mi North 5.8 mph - 0.00 in   Drizzle
4:56 PM 64.0 °F 55.0 °F 73% 30.30 in 10.0 mi North 5.8 mph - 0.00 in   Overcast
5:56 PM 64.9 °F 54.0 °F 68% 30.29 in 10.0 mi NNE 3.5 mph - N/A   Overcast
6:56 PM 64.9 °F 55.0 °F 70% 30.27 in 10.0 mi NNE 4.6 mph - 0.00 in   Overcast
7:56 PM 64.0 °F 54.0 °F 70% 30.26 in 10.0 mi ENE 4.6 mph - N/A   Overcast
8:56 PM 63.0 °F 55.0 °F 75% 30.26 in 10.0 mi East 6.9 mph - N/A   Overcast
9:56 PM 61.0 °F 55.9 °F 83% 30.27 in 10.0 mi East 5.8 mph - N/A   Overcast
10:56 PM 60.1 °F 55.0 °F 83% 30.25 in 10.0 mi East 9.2 mph - N/A   Mostly Cloudy
11:56 PM 57.9 °F 54.0 °F 87% 30.23 in 10.0 mi ESE 5.8 mph - N/A   Scattered Clouds